Regional Weather Roundup
Issued by NWS Northern Indiana

Home | Current Version | Previous Version | Text Only | Print | Product List | Glossary Off
Versions: 1 2 3 4 5 6 7 8 9 10 11 12 13 14 15 16 17 18 19 20 21 22 23 24 25 26 27 28 29 30 31 32 33 34 35 36 37 38 39 40 41 42 43 44 45 46 47 48 49 50

538
ASUS43 KIWX 112110
RWRIWX

KIWX WEATHER ROUNDUP
NATIONAL WEATHER SERVICE NORTHERN INDIANA
400 PM EST THU FEB 11 2016

NOTE: "FAIR" INDICATES FEW OR NO CLOUDS BELOW 12,000 FEET WITH NO
SIGNIFICANT WEATHER AND/OR OBSTRUCTIONS TO VISIBILITY.

* THESE STATIONS ARE NOT UNDER NWS QUALITY CONTROL. THEY ALSO MAY NOT
  REPORT WEATHER SUCH AS PRECIPITATION OR FOG.

INZ001>027-112200-
NORTHERN INDIANA

CITY           SKY/WX    TMP DP  RH WIND       PRES   REMARKS
GARY*          MOSUNNY   23   3  42 N6        30.30S WCI  16
VALPARAISO     MOSUNNY   21   8  57 VRB5      30.28S WCI  15
MICHIGAN CITY* PTSUNNY   19   9  63 NW6       30.30R WCI  11
LAPORTE*       MOSUNNY   22  11  62 W8        30.28S WCI  12
KNOX*          MOSUNNY   21   9  58 NW10      30.28S WCI  10
SOUTH BEND     CLOUDY    19   9  65 W14       30.27R WCI   6
ELKHART*       CLOUDY    21   7  53 NW12      30.26R WCI   9
GOSHEN         CLOUDY    20   9  62 NW13      30.25S WCI   7
MONTICELLO*    SUNNY     23   0  37 W7        30.29R WCI  14
LOGANSPORT*    MOSUNNY   23   5  46 NW5       30.29R WCI  17
ROCHESTER*     MOSUNNY   25   5  42 W6        30.27S WCI  18
WARSAW*        CLOUDY    23  14  68 W12       30.26R WCI  12
ANGOLA*        PTSUNNY   19   9  63 NW7       30.22S WCI  10
FORT WAYNE     PTSUNNY   22   6  50 W12       30.26S WCI  10
HUNTINGTON*    CLOUDY    20   4  49 W3        30.27R
PERU/GRISSOM   MOSUNNY   21   6  50 NW6       30.25S WCI  14
MARION*        MOSUNNY   21   1  41 NW5       30.27S WCI  14

$$
INZ028>050-112200-
CENTRAL INDIANA

CITY           SKY/WX    TMP DP  RH WIND       PRES   REMARKS
LAFAYETTE      SUNNY     23   2  40 NW5       30.30R WCI  17
KOKOMO*        MOSUNNY   23   7  50 N8        30.27S WCI  14
MUNCIE*        PTSUNNY   21   9  59 N7        30.26S WCI  12
INDIANAPOLIS   MOSUNNY   25   5  42 VRB3      30.27R

$$
MIZ043>046-050>051-056>058-064>065-071>073-077>080-112200-
SOUTHWEST LOWER MICHIGAN

CITY           SKY/WX    TMP DP  RH WIND       PRES   REMARKS
BATTLE CREEK   CLOUDY    21   7  54 W10       30.21F WCI  10
BENTON HARBOR  LGT SNOW  20  12  71 VRB6      30.26F WCI  12
COLDWATER*     PTSUNNY   20   7  55 W7        30.22S WCI  12
HILLSDALE*     PTSUNNY   20  10  65 W7        30.19S WCI  11
HOLLAND        CLOUDY    21   8  57 NW9       30.24S WCI  11
GRAND RAPIDS   PTSUNNY   21   5  50 W13       30.21S WCI   9
KALAMAZOO      LGT SNOW  20  11  68 W12       30.23S WCI   8
STURGIS*       CLOUDY    20   6  54 W7G16     30.22S WCI  11
THREE RIVERS*  CLOUDY    22  10  60 W9        30.24S WCI  11

$$
OHZ001>008-015>018-024>025-112200-
NORTHWEST OHIO

CITY           SKY/WX    TMP DP  RH WIND       PRES   REMARKS
DEFIANCE       CLOUDY    22   7  52 NW10      30.26R WCI  11
FINDLAY        CLOUDY    21   5  50 NW13      30.24R WCI   9
TOLEDO EXPRESS MOSUNNY   22   8  55 W9        30.24S WCI  12
TOLEDO METCALF CLOUDY    21   4  47 W14       30.25R WCI   8
LIMA           CLOUDY    20   6  55 NW8       30.24R WCI  10

$$
AND FOR LAKE MICHIGAN COASTAL AND OPEN LAKE BUOY OBSERVATIONS

STATION/POSITION TEMP    WIND        PRES    VSBY  WAVE
                 AIR SEA DIR/SP/G                  HT/PER
                 (F)     (DEG/KT/KT) (MB)    (MI)  (FT/S)
CALUMET HARBOR    18      20/  8/ 11 1025.1F
MICHIGAN CITY     19     270/ 12/ 13   N/A
BURNS HARBOR      18     310/  8/ 18 1026.4F
SAINT JOSEPH      21     260/  8/ 13 1024.7F

$$
&&




USA.gov is the U.S. government's official web portal to all federal, state and local government web resources and services.